User: anonymous   Login
Location: *
(0.1100°N, 5.5000°E)
Time: 23:10:16
(UTC+00:00)
Language:

Haruka - Orbit

View from above orbital plane
View from above orbital plane
View from above satellite
View from above satellite

Ground track
Ground track

The orbit data is extracted from the following two-line orbital elements,

1 24720U 97005A   23088.97678257  .00001235  00000-0  47682-2 0  9998
2 24720  31.3098 309.5270 5988547 133.1147   0.6517  3.83406695364559
Epoch (UTC): 29 March 2023 23:26:34
Eccentricity: 0.5988547
inclination: 31.3098°
perigee height: 539 km
apogee height: 21192 km
right ascension of ascending node: 309.5270°
argument of perigee: 133.1147°
revolutions per day: 3.83406695
mean anomaly at epoch: 0.6517°
orbit number at epoch: 36455

The dashed part of the orbit path shows where the satellite is in the earth's shadow,  

DLR